[[{"header":{"parameterUnit":"m.s-1","parameterCategory":1,"la1":30.2991,"la2":30.254,"lo1":-89.0895,"lo2":-89.0444,"dy":0.0017,"dx":0.0017,"nx":28,"ny":28,"refTime":"2024-07-19T21:00:00:Z","depth":0,"parameterNumber":2,"parameterNumberName":"U-component_of_WINDS"},"data":[0,0,0,0,0,0,0,0,0,0,0,0,0,0,0,0,0,0,0,0,0,0,0,0,0,0,0,0,0,0,0,0,0,0,0,0,0,0,0,0,0,0,0,0,0,0,0,0,0,0,0,0,0,0,0,0,0,0,2.4818,2.482,0,2.5027,2.503,2.5032,2.505,2.5047,2.5045,2.5043,2.5254,2.5262,2.5269,0,0,0,0,0,0,0,0,0,0,0,0,0,2.4428,2.4435,2.4818,2.482,2.4823,2.5027,2.503,2.5033,2.505,2.5047,2.5045,2.5042,2.5252,2.5261,2.527,0,0,0,0,0,0,0,0,0,0,0,0,0,2.4613,2.4437,2.4817,2.4856,2.4862,2.5026,2.503,2.5033,2.5051,2.5047,2.5044,2.5041,2.5249,2.526,2.5271,2.541,0,0,2.5307,2.5312,0,0,0,0,0,0,0,0,2.4602,2.4627,2.4848,2.4854,2.4861,2.5009,2.497,2.516,2.5051,2.4979,2.5043,2.5039,2.5175,2.5193,2.5239,2.542,2.5429,2.5308,2.5315,2.532,2.5323,0,0,0,0,0,0,0,2.459,2.4618,2.4901,2.4851,2.4859,2.4862,2.4884,2.5006,2.5093,2.4985,2.4987,2.5011,2.5178,2.5228,2.5244,2.5432,2.5308,2.5318,2.5325,2.533,2.5733,2.5737,0,0,0,0,0,0,2.457,2.4607,2.4894,2.4907,2.4721,2.4871,2.4897,2.4965,2.5092,2.5108,2.5014,2.5011,2.521,2.5231,2.5252,2.542,2.532,2.5331,2.5337,2.573,2.5734,2.5738,0,0,0,0,0,0,2.4561,2.4595,2.4885,2.4758,2.4795,2.4882,2.4958,2.4971,2.5021,2.5114,2.5129,2.505,2.5208,2.5236,2.537,2.5428,2.5336,2.5346,2.5725,2.5731,2.5736,2.5759,0,0,0,0,0,0,2.455,2.4592,2.4647,2.4759,2.4802,2.5002,2.4962,2.4977,2.5041,2.504,2.5151,2.5167,2.5208,2.5353,2.5382,2.5442,2.5355,2.572,2.5728,2.5734,2.5754,2.5765,2.5775,0,0,0,0,0,2.4536,2.4646,2.465,2.4685,2.4873,2.5005,2.503,2.5076,2.5046,2.5101,2.516,2.5163,2.5417,2.5366,2.5399,2.5464,2.5717,2.5726,2.5734,2.5749,2.5763,2.5774,0,0,0,0,0,0,2.4539,2.4661,2.4667,2.4817,2.49,2.5008,2.5079,2.5089,2.5183,2.5177,2.5229,2.5254,2.5386,2.5439,2.538,2.5603,2.5563,2.5579,2.5564,2.5578,2.5588,2.5572,2.5365,0,0,0,0,0,2.4557,2.4656,2.4757,2.4878,2.492,2.4992,2.5052,2.508,2.5168,2.5203,2.5273,2.5357,2.5456,2.552,2.5616,2.5761,2.5784,2.5822,2.5832,2.584,2.5852,2.593,2.5946,2.5766,2.5766,2.5766,0,0,2.4595,2.4674,2.4733,2.4881,2.4949,2.5048,2.5022,2.5129,2.5202,2.5219,2.535,2.5404,2.5501,2.5641,2.5706,2.5689,2.5907,2.5851,2.5857,2.5865,2.594,2.5957,2.5972,2.5772,2.5771,2.577,0,0,2.4714,2.4785,2.4893,2.4961,2.5065,2.5112,2.5137,2.5243,2.5279,2.5412,2.5425,2.5512,2.5682,2.575,2.5806,2.5948,2.5953,2.5977,2.6032,2.6106,2.612,2.6133,2.6181,2.6198,2.599,2.599,2.599,0,2.4748,2.49,2.4947,2.5053,2.5116,2.5136,2.5243,2.5307,2.5436,2.5478,2.5458,2.5668,2.5736,2.589,2.5924,2.597,2.5998,2.5965,2.6115,2.6128,2.6141,2.6187,2.6205,2.5992,2.5992,2.5991,2.5991,0,2.4935,2.5039,2.5114,2.5238,2.5309,2.5415,2.5476,2.5543,2.5563,2.5611,2.5743,2.5824,2.5935,2.5974,2.5996,2.613,2.6116,2.6105,2.6066,2.6159,2.6203,2.6222,2.5995,2.5994,2.5993,2.5993,0,0,2.5064,2.521,2.5237,2.5291,2.5405,2.5486,2.5592,2.5701,2.5755,2.5843,2.593,2.6072,2.6061,2.6125,2.6154,2.6219,2.6322,2.62,2.6202,2.6217,2.6472,2.6478,2.6498,2.6326,2.633,2.6333,2.6463,0,2.5195,2.5385,2.5428,2.559,2.5685,2.5704,2.5795,2.5873,2.592,2.6006,2.6057,2.6156,2.6135,2.6173,2.6239,2.6296,2.6374,2.6287,2.6406,2.641,2.638,2.6522,2.6531,2.6649,2.648,2.6483,2.6486,0,2.5374,2.5464,2.5636,2.5734,2.5775,2.5857,2.5958,2.6041,2.6129,2.6158,2.6228,2.6249,2.6357,2.6313,2.646,2.64,2.6451,2.6486,2.6491,2.6503,2.6453,2.6536,2.6689,2.6705,2.6514,2.6511,2.6509,0,2.5447,2.5612,2.5735,2.5782,2.5901,2.5957,2.6008,2.6093,2.6154,2.6242,2.6282,2.6381,2.6435,2.651,2.6557,2.6521,2.6699,2.666,2.6724,2.6723,2.676,2.6757,2.6921,2.6796,2.6795,2.6795,2.6795,0,2.5588,2.5692,2.577,2.5845,2.596,2.6008,2.612,2.6172,2.6246,2.633,2.6352,2.643,2.6487,2.6572,2.6609,2.6723,2.6748,2.6772,2.6781,2.677,2.6766,2.6803,2.6795,2.68,2.6799,2.6798,2.6797,0,2.569,2.5747,2.5882,2.5982,2.6009,2.6089,2.6174,2.6247,2.6293,2.6398,2.6426,2.6498,2.6599,2.6652,2.6779,2.6803,2.693,2.6935,2.6901,2.6904,2.6964,2.6957,2.7157,2.7185,2.7042,2.7043,2.7044,0,2.5776,2.5856,2.5964,2.6021,2.6074,2.6168,2.623,2.6279,2.6342,2.6446,2.6505,2.6607,2.6692,2.6851,2.6914,2.7009,2.7015,2.7078,2.703,2.7015,2.7013,2.7007,2.7014,2.7087,2.7088,2.7089,2.709,0,2.5921,2.5944,2.6034,2.6133,2.6206,2.6286,2.6365,2.6411,2.6472,2.6542,2.6645,2.671,2.6838,2.6938,2.7038,2.7089,2.7099,2.7105,2.7124,2.7113,2.7089,2.7101,2.6922,2.71,2.7099,2.7098,2.7098,2.7097,2.6016,2.6087,2.6173,2.6271,2.6335,2.6407,2.6479,2.6534,2.6621,2.6729,2.6752,2.6861,2.6942,2.7078,2.7131,2.7215,2.7202,2.7231,2.7238,2.7244,2.7245,2.7077,2.7233,2.7233,2.7233,2.7233,2.7233,0,2.616,2.6216,2.6306,2.6415,2.6491,2.6494,2.658,2.6643,2.6739,2.6815,2.6896,2.7013,2.7109,2.7178,2.7275,2.7329,2.7335,2.7352,2.7348,2.7359,2.7252,2.7225,2.7345,2.7345,2.7345,2.7345,2.7345,2.7345,2.6244,2.6362,2.6395,2.6544,2.6599,2.6705,2.6754,2.682,2.688,2.701,2.709,2.7134,2.7206,2.7308,2.7395,2.7413,2.7447,2.7463,2.748,2.7379,2.7367,2.7356,2.733,2.747,2.747,2.758,2.7581,2.7582]},{"header":{"parameterUnit":"m.s-1","parameterCategory":1,"la1":30.2991,"la2":30.254,"lo1":-89.0895,"lo2":-89.0444,"dy":0.0017,"dx":0.0017,"nx":28,"ny":28,"refTime":"2024-07-19T21:00:00:Z","depth":0,"parameterNumber":3,"parameterNumberName":"V-component_of_WINDS"},"data":[0,0,0,0,0,0,0,0,0,0,0,0,0,0,0,0,0,0,0,0,0,0,0,0,0,0,0,0,0,0,0,0,0,0,0,0,0,0,0,0,0,0,0,0,0,0,0,0,0,0,0,0,0,0,0,0,0,0,3.6357,3.6357,0,3.6367,3.6367,3.6368,3.6359,3.6358,3.6358,3.6358,3.6367,3.6367,3.6368,0,0,0,0,0,0,0,0,0,0,0,0,0,3.6327,3.6327,3.6357,3.6357,3.6357,3.6367,3.6367,3.6368,3.6359,3.6358,3.6358,3.6357,3.6367,3.6367,3.6368,0,0,0,0,0,0,0,0,0,0,0,0,0,3.6339,3.6327,3.6357,3.6354,3.6354,3.6367,3.6367,3.6368,3.6359,3.6358,3.6358,3.6357,3.6366,3.6367,3.6368,3.6385,0,0,3.6371,3.6371,0,0,0,0,0,0,0,0,3.6338,3.634,3.6354,3.6354,3.6354,3.6361,3.636,3.6373,3.6359,3.6357,3.6358,3.6357,3.6365,3.6366,3.6369,3.6385,3.6385,3.6371,3.6371,3.6372,3.6372,0,0,0,0,0,0,0,3.6337,3.6339,3.6361,3.6354,3.6354,3.6351,3.6352,3.6363,3.6364,3.6357,3.6356,3.6358,3.6365,3.6369,3.637,3.6385,3.6371,3.6372,3.6372,3.6373,3.6414,3.6414,0,0,0,0,0,0,3.6337,3.6339,3.636,3.6361,3.6345,3.6352,3.6354,3.6359,3.6364,3.6364,3.6358,3.6357,3.6367,3.6369,3.637,3.6388,3.6372,3.6373,3.6373,3.6413,3.6414,3.6414,0,0,0,0,0,0,3.6336,3.6339,3.636,3.635,3.6352,3.6353,3.636,3.636,3.6363,3.6365,3.6365,3.6362,3.6367,3.6369,3.6381,3.6388,3.6373,3.6374,3.6412,3.6413,3.6414,3.6425,0,0,0,0,0,0,3.6335,3.6339,3.6346,3.635,3.6353,3.6371,3.6361,3.636,3.6365,3.6364,3.6368,3.6368,3.6367,3.6379,3.6382,3.6389,3.6375,3.6412,3.6413,3.6414,3.6424,3.6427,3.6428,0,0,0,0,0,3.6334,3.6348,3.6346,3.6349,3.6361,3.6372,3.6373,3.6372,3.6366,3.6372,3.6373,3.6368,3.6387,3.6381,3.6383,3.6391,3.6411,3.6412,3.6414,3.6423,3.6426,3.6428,0,0,0,0,0,0,3.6344,3.6349,3.6346,3.6362,3.6367,3.637,3.6378,3.6375,3.6381,3.638,3.6377,3.6378,3.6391,3.6392,3.6385,3.6406,3.6398,3.64,3.6405,3.6407,3.6409,3.6408,3.6375,0,0,0,0,0,3.6348,3.6357,3.636,3.6374,3.6377,3.6377,3.6382,3.638,3.6384,3.6386,3.6388,3.6392,3.6399,3.6403,3.641,3.6425,3.6425,3.6432,3.6434,3.6435,3.6436,3.6443,3.6446,3.6418,3.6418,3.6418,0,0,3.6357,3.636,3.6366,3.6376,3.6379,3.6388,3.6379,3.6388,3.6394,3.6387,3.6399,3.64,3.6405,3.6418,3.6424,3.642,3.6444,3.6437,3.6438,3.6438,3.6445,3.6447,3.645,3.6419,3.6419,3.6419,0,0,3.6376,3.638,3.6391,3.6395,3.64,3.64,3.6403,3.6407,3.6408,3.6419,3.6414,3.6421,3.6433,3.6436,3.6439,3.6459,3.6454,3.6461,3.6471,3.6478,3.648,3.6482,3.6488,3.649,3.6463,3.6463,3.6463,0,3.6385,3.6398,3.6397,3.6407,3.6411,3.6406,3.6416,3.642,3.6427,3.6429,3.6425,3.644,3.6442,3.6455,3.646,3.6463,3.6465,3.646,3.648,3.6482,3.6484,3.6489,3.6491,3.6463,3.6463,3.6463,3.6463,0,3.6408,3.6417,3.6426,3.6433,3.6438,3.6448,3.6448,3.6453,3.6451,3.6451,3.6463,3.6466,3.6472,3.6476,3.6474,3.6488,3.6485,3.6481,3.6472,3.6487,3.6492,3.6494,3.6464,3.6464,3.6464,3.6464,0,0,3.6433,3.644,3.6442,3.6445,3.6451,3.6457,3.6467,3.6473,3.6477,3.6483,3.6489,3.65,3.6495,3.6499,3.6497,3.6503,3.6517,3.6498,3.6498,3.65,3.6532,3.6534,3.6537,3.6515,3.6515,3.6515,3.6531,0,3.6451,3.6468,3.6467,3.6483,3.649,3.6486,3.6494,3.6498,3.6498,3.6504,3.6505,3.6512,3.6506,3.6508,3.6514,3.6514,3.6523,3.6513,3.652,3.652,3.6518,3.654,3.6543,3.6557,3.6533,3.6534,3.6534,0,3.6474,3.648,3.6496,3.65,3.6503,3.6511,3.6516,3.6522,3.6526,3.6526,3.653,3.6528,3.6536,3.6528,3.6539,3.6533,3.6535,3.6536,3.6537,3.6536,3.6527,3.6539,3.6562,3.6564,3.6537,3.6537,3.6537,0,3.6489,3.6501,3.6512,3.6515,3.652,3.6525,3.6527,3.653,3.6534,3.6539,3.6541,3.6547,3.655,3.6554,3.6553,3.6548,3.6564,3.6556,3.6563,3.6563,3.6566,3.6565,3.6589,3.657,3.657,3.657,3.657,0,3.6508,3.6518,3.6518,3.6525,3.6535,3.6535,3.6545,3.6546,3.6549,3.6555,3.6552,3.6558,3.6557,3.6562,3.6561,3.657,3.6572,3.6571,3.657,3.6571,3.657,3.6571,3.657,3.657,3.657,3.657,3.657,0,3.6526,3.6527,3.6538,3.6542,3.6543,3.655,3.6553,3.6559,3.656,3.6567,3.6569,3.657,3.6576,3.6576,3.6583,3.6582,3.6592,3.6591,3.6591,3.659,3.6597,3.6596,3.6621,3.6623,3.6604,3.6604,3.6604,0,3.6537,3.6545,3.6549,3.6553,3.6556,3.6563,3.6567,3.6566,3.657,3.6575,3.658,3.6586,3.6591,3.6601,3.6601,3.6606,3.6605,3.6613,3.6605,3.6605,3.6603,3.6602,3.6602,3.6614,3.6614,3.6615,3.6615,0,3.6557,3.6557,3.6564,3.657,3.6574,3.6579,3.6583,3.6587,3.6586,3.6591,3.6598,3.6601,3.6609,3.6614,3.6619,3.6621,3.6617,3.6617,3.6619,3.6619,3.6618,3.6617,3.6594,3.6616,3.6616,3.6616,3.6616,3.6616,3.6571,3.6577,3.6581,3.6588,3.6591,3.6595,3.66,3.6602,3.6607,3.6613,3.6613,3.662,3.6623,3.6629,3.6631,3.6636,3.6633,3.6636,3.6636,3.6636,3.6637,3.6618,3.6637,3.6637,3.6637,3.6637,3.6637,0,3.659,3.6592,3.6599,3.6605,3.661,3.6607,3.6611,3.6616,3.6622,3.6625,3.663,3.6637,3.6643,3.6644,3.6649,3.6653,3.6651,3.6654,3.6653,3.6653,3.664,3.6637,3.6655,3.6655,3.6655,3.6655,3.6655,3.6655,3.66,3.661,3.661,3.6621,3.6623,3.663,3.6633,3.6636,3.6639,3.6647,3.6652,3.6653,3.6655,3.666,3.6665,3.6665,3.6667,3.667,3.6669,3.6656,3.6654,3.6653,3.665,3.667,3.667,3.6682,3.6682,3.6682]}]]